Temp
22 21 20 19 19 19 20 20 20 20 21 20 20 20 19 19 18 18 18 18 18 18 17 17 17 17 16 16 16 15 15 16
21 21 20 20 19 19 19 19 20 20 20 20 20 20 19 19 18 18 18 18 18 17 17 17 17 17 16 16 16 15 15 15
21 20 20 19 19 18 19 19 19 19 20 19 19 19 19 19 18 18 18 18 18 17 17 17 17 16 16 16 16 15 15 15
20 20 19 19 18 18 18 19 19 19 19 19 19 19 19 19 18 18 18 18 18 17 17 17 16 16 16 16 16 16 15 15
20 19 18 17 17 17 18 18 18 18 19 19 19 19 19 18 18 18 18 18 17 17 17 17 16 16 16 16 16 16 15 15
20 17 17 16 16 16 16 17 17 17 18 18 18 18 18 18 18 18 18 18 18 17 17 17 17 16 16 16 16 16 15 15
18 17 16 15 16 15 16 16 16 16 17 17 18 18 18 18 18 18 18 18 18 17 17 17 16 16 16 16 15 16 15 15
16 15 15 15 16 15 15 15 15 16 16 16 17 17 17 17 17 18 18 18 18 17 17 17 16 16 16 16 15 15 15 15
16 16 16 16 15 15 16 15 15 15 15 15 16 16 16 16 17 17 17 17 17 17 16 16 16 16 16 15 15 14 14 14
16 16 16 16 16 16 15 15 15 15 15 15 15 15 15 16 16 16 16 16 16 16 16 16 16 15 15 15 15 14 14 14
16 16 16 16 16 16 15 15 15 14 14 15 15 16 16 15 15 16 15 15 16 16 15 16 15 16 16 15 14 14 14 13
16 16 16 16 15 15 16 15 15 15 15 15 15 15 15 15 14 15 15 15 15 16 15 16 16 16 16 15 14 14 13 13
15 15 15 14 14 14 15 15 15 15 15 15 14 14 14 14 15 15 14 15 15 15 16 15 15 15 15 14 14 14 13 13
13 13 13 13 13 12 11 12 13 13 14 14 15 14 14 14 14 14 14 14 14 14 15 15 15 15 14 14 13 13 13 13
12 12 12 12 12 11 10 11 11 12 12 13 13 13 14 14 14 13 13 13 14 14 14 15 15 14 13 13 12 13 13 13
10 10 11 11 11 11 10 10 10 10 10 11 12 12 12 12 13 13 13 12 13 13 13 14 15 14 13 14 11 11 12 12
7 8 11 10 9 10 9 8 8 9 9 9 9 10 10 10 11 12 12 12 12 12 13 13 14 14 13 13 14 12 12 13
6 7 10 8 8 7 8 7 7 8 8 9 9 9 9 9 9 10 11 12 12 13 12 12 13 13 14 13 13 12 11 12
6 8 8 7 7 7 6 6 6 6 7 8 8 8 9 9 9 9 10 11 12 12 12 12 12 12 13 13 14 12 13 14
4 5 6 6 6 6 5 5 5 6 6 6 7 7 7 9 9 8 9 10 11 11 11 12 12 11 12 11 12 11 13 13
Height
1487 1487 1489 1490 1491 1494 1496 1497 1499 1501 1503 1505 1508 1510 1512 1514 1515 1517 1518 1519 1520 1522 1525 1527 1528 1530 1531 1533 1534 1535 1536 1536
1485 1485 1486 1487 1488 1489 1492 1495 1497 1499 1501 1503 1505 1507 1509 1511 1512 1513 1515 1516 1517 1519 1522 1524 1526 1527 1529 1531 1532 1533 1534 1534
1484 1484 1483 1484 1484 1485 1487 1490 1493 1496 1498 1500 1502 1504 1507 1508 1509 1510 1512 1513 1513 1515 1518 1520 1523 1524 1525 1527 1529 1531 1532 1533
1482 1482 1481 1481 1481 1482 1482 1485 1488 1491 1494 1497 1499 1502 1503 1505 1507 1508 1509 1510 1510 1512 1514 1516 1518 1520 1522 1523 1526 1528 1529 1531
1478 1482 1481 1479 1480 1479 1479 1481 1484 1486 1489 1492 1495 1498 1499 1501 1502 1504 1504 1506 1506 1507 1509 1511 1513 1516 1518 1520 1522 1524 1526 1528
1474 1476 1479 1477 1477 1479 1480 1479 1481 1483 1486 1488 1490 1492 1494 1496 1497 1499 1501 1501 1502 1503 1504 1507 1509 1511 1514 1516 1517 1520 1522 1524
1472 1474 1474 1476 1475 1477 1479 1479 1479 1481 1483 1484 1486 1488 1490 1493 1494 1495 1496 1497 1497 1499 1500 1502 1504 1507 1509 1512 1514 1515 1518 1520
1467 1470 1474 1473 1474 1475 1475 1476 1477 1478 1480 1481 1483 1484 1486 1487 1489 1489 1491 1491 1493 1494 1495 1497 1499 1502 1505 1506 1508 1511 1512 1514
1463 1466 1469 1471 1471 1471 1473 1474 1473 1474 1475 1477 1479 1480 1480 1481 1481 1482 1483 1485 1487 1489 1492 1493 1495 1496 1498 1502 1503 1506 1508 1509
1459 1463 1465 1467 1470 1469 1469 1470 1470 1470 1471 1471 1472 1474 1476 1475 1474 1477 1481 1482 1483 1485 1487 1488 1490 1491 1493 1495 1498 1500 1502 1504
1456 1459 1460 1463 1466 1466 1466 1467 1467 1468 1467 1466 1466 1467 1469 1470 1470 1472 1477 1475 1477 1479 1481 1483 1484 1486 1487 1490 1492 1494 1496 1498
1451 1453 1454 1457 1460 1462 1461 1461 1463 1464 1464 1463 1463 1463 1464 1463 1463 1464 1468 1471 1470 1471 1473 1476 1478 1479 1481 1483 1485 1489 1492 1493
1448 1450 1451 1454 1455 1456 1458 1456 1457 1458 1459 1458 1458 1457 1458 1457 1456 1456 1459 1461 1463 1466 1467 1469 1470 1473 1476 1477 1478 1479 1483 1487
1446 1448 1451 1453 1454 1455 1454 1454 1453 1452 1451 1452 1451 1450 1450 1451 1450 1450 1450 1452 1454 1457 1460 1464 1465 1468 1469 1470 1469 1474 1474 1477
1446 1449 1451 1451 1451 1452 1451 1449 1449 1447 1447 1446 1445 1443 1442 1442 1443 1442 1442 1444 1444 1447 1450 1455 1458 1460 1462 1466 1435 1458 1471 1474
1448 1449 1449 1449 1449 1448 1447 1445 1442 1442 1440 1437 1436 1436 1435 1433 1432 1434 1434 1435 1435 1438 1440 1444 1448 1449 1453 1455 1448 1445 1466 1470
1452 1450 1444 1446 1446 1445 1445 1443 1441 1438 1434 1430 1427 1426 1426 1425 1424 1423 1424 1425 1427 1429 1430 1433 1438 1440 1442 1449 1451 1452 1457 1465
1449 1446 1440 1443 1443 1442 1440 1440 1437 1433 1428 1423 1420 1419 1418 1417 1415 1414 1413 1415 1418 1420 1420 1423 1427 1432 1435 1439 1441 1443 1441 1445
1447 1443 1444 1442 1439 1437 1435 1435 1433 1429 1423 1418 1415 1412 1411 1410 1408 1405 1404 1405 1406 1410 1410 1412 1415 1420 1425 1428 1432 1433 1434 1435
1449 1447 1442 1439 1438 1435 1434 1430 1428 1424 1420 1416 1413 1409 1405 1403 1400 1399 1396 1395 1395 1400 1401 1402 1405 1410 1411 1414 1421 1423 1427 1430
Wind_Speed
7 9 12 14 21 26 26 25 24 22 21 21 20 20 20 20 18 17 16 16 14 13 12 11 10 10 9 9 9 11 12 12
9 9 9 15 17 25 26 25 24 23 23 22 22 22 22 22 21 20 19 18 17 16 15 14 12 12 11 11 11 13 13 13
12 9 8 10 19 23 28 27 26 25 24 23 23 24 25 25 25 23 21 21 20 19 18 17 15 14 13 13 14 14 14 15
16 13 9 10 11 21 27 30 29 28 26 26 26 25 25 25 25 24 24 23 23 22 21 20 20 18 16 15 15 16 16 16
15 14 9 7 8 15 25 30 29 29 28 27 27 26 26 26 27 27 27 26 27 27 26 26 24 21 19 18 16 17 17 17
12 13 13 8 6 10 14 23 27 28 29 29 29 28 28 28 29 29 29 29 30 30 29 28 26 24 22 20 19 18 17 18
16 15 13 12 11 10 15 17 22 22 27 29 30 30 29 30 30 30 31 30 31 31 31 30 29 28 25 23 21 19 19 17
18 14 10 11 14 12 17 18 17 20 23 27 31 31 31 32 32 33 33 32 31 31 31 31 32 31 28 26 25 22 20 19
19 15 10 7 8 13 15 19 20 22 23 23 25 29 31 34 35 37 36 35 33 29 31 29 27 31 32 27 23 22 21 20
18 13 11 9 9 11 14 19 20 22 25 28 26 27 32 33 33 35 34 33 34 33 31 32 31 29 31 30 26 24 23 23
15 12 11 12 16 18 16 18 20 21 23 23 24 26 28 31 34 35 33 41 37 36 36 35 35 32 31 30 28 28 26 26
12 9 12 14 15 17 20 20 20 23 24 26 27 26 27 30 31 34 37 39 39 42 42 40 39 36 34 32 31 29 27 28
5 5 8 11 13 14 17 21 21 22 25 28 29 30 29 27 32 34 35 38 41 44 40 42 45 43 40 36 35 33 29 25
6 2 4 9 13 15 16 18 21 22 23 25 29 33 34 34 34 34 36 37 41 44 43 45 42 42 43 36 27 32 30 29
8 7 7 8 11 16 17 18 19 21 22 24 25 29 35 38 40 38 36 34 38 42 45 42 46 43 38 22 22 11 22 31
10 7 8 10 12 15 18 20 23 24 25 26 26 25 29 35 42 44 41 36 37 40 43 42 41 45 38 30 19 7 8 10
13 11 11 13 13 15 19 20 22 24 26 28 27 27 26 27 33 41 46 43 37 38 44 45 42 44 44 41 36 39 41 33
16 16 17 16 17 17 18 21 22 23 25 27 28 28 27 25 24 29 36 42 39 40 44 46 46 45 47 48 39 46 48 45
20 19 16 19 20 20 19 20 22 24 25 28 30 30 29 25 24 24 28 34 39 37 40 46 47 46 44 47 46 51 47 42
20 19 19 20 20 21 21 21 22 23 23 25 27 30 30 28 29 30 30 28 36 40 32 41 47 42 40 34 43 55 59 49
Wind_Direction
291 270 242 234 222 225 223 219 214 210 208 208 208 208 208 212 214 216 219 222 224 222 220 223 224 225 221 217 211 203 204 205
286 293 274 240 229 222 223 223 219 215 211 210 209 210 212 214 218 220 222 224 227 228 226 227 229 230 225 222 217 211 207 218
270 276 276 266 237 225 223 222 220 216 214 212 212 213 214 215 220 221 224 226 228 231 232 234 233 232 230 226 223 223 216 217
261 260 267 269 271 235 222 218 219 219 217 216 217 218 219 222 225 226 227 229 231 233 234 236 236 234 233 230 228 228 226 223
256 246 249 260 297 259 224 219 218 219 221 222 223 223 223 225 226 228 228 228 231 231 232 234 238 238 236 236 234 230 230 227
241 223 237 231 246 275 250 225 224 224 225 225 227 227 228 230 231 231 233 232 235 235 237 238 240 242 240 238 234 235 237 233
207 215 214 219 228 246 241 243 240 237 235 234 233 234 235 236 237 236 237 238 238 239 240 241 243 243 243 241 238 234 236 239
171 179 191 204 208 222 233 234 235 238 239 239 239 240 240 242 242 241 240 241 241 241 242 244 246 245 245 245 242 238 232 233
164 170 179 195 208 216 236 239 242 244 247 250 249 242 243 243 245 245 243 241 241 241 242 244 248 246 244 241 236 234 232 232
168 185 207 230 241 239 233 247 247 245 238 243 242 249 255 250 244 244 249 247 244 242 241 242 247 247 243 236 231 231 233 238
178 200 230 257 269 271 257 246 247 249 251 251 251 246 247 256 256 249 242 253 247 245 244 242 243 247 242 234 234 234 234 236
198 237 273 280 276 270 270 268 255 252 249 248 250 248 246 246 253 263 255 250 248 246 243 246 245 244 245 239 237 238 236 240
168 234 279 292 296 288 276 277 276 264 258 257 251 249 250 251 251 252 258 258 253 249 248 247 243 241 239 237 233 231 230 237
86 50 313 309 311 315 309 301 290 286 279 267 261 257 253 249 253 255 253 257 257 255 252 247 250 247 241 238 221 225 222 227
46 24 356 333 316 312 309 303 297 294 287 282 272 266 259 254 250 255 258 255 260 259 255 252 248 244 242 255 192 203 227 231
58 52 25 358 335 323 321 320 315 315 311 302 291 280 269 262 256 251 253 255 257 259 260 253 249 242 232 228 301 343 233 261
36 33 29 2 347 332 322 317 313 312 313 309 306 303 294 279 266 259 254 252 257 259 258 255 251 246 231 226 253 228 233 243
27 23 17 2 353 343 333 322 316 315 317 316 312 313 312 306 287 269 261 257 252 256 258 257 254 251 251 250 248 220 222 218
14 13 6 2 356 349 342 331 324 320 322 323 319 315 315 312 305 297 278 261 249 249 255 252 254 254 256 257 254 228 222 225
7 6 5 3 357 352 346 340 332 328 322 322 321 314 312 313 305 303 297 277 256 241 254 252 250 252 238 243 251 235 229 235